Staples, MN

11:05 PM CST on December 10, 2016 (GMT -0600)
Staples Municipal

Weather History for KSAZ - September, 2012

Change the Weather History Date:

Monday, September 10, 2012

  Actual Average Record
Temperature  
Mean Temperature 64 °F -  
Max Temperature 82 °F 70 °F 89 °F (1998)
Min Temperature 46 °F 49 °F 41 °F (2006)
Degree Days  
Heating Degree Days 1    
Growing Degree Days 14 (Base 50)    
Moisture  
Dew Point 45 °F    
Average Humidity 54    
Maximum Humidity 93    
Minimum Humidity 26    
Precipitation  
Precipitation 0.00 in - - ()
Sea Level Pressure  
Sea Level Pressure 29.85 in    
Wind  
Wind Speed 8 mph (SSE)    
Max Wind Speed 22 mph    
Max Gust Speed 32 mph    
Visibility 10 miles    
Events      
Averages and records for this station are not official NWS values.
T = Trace of Precipitation, MM = Missing Value Source: NWS Daily Summary

Daily Weather History Graph

Daily Weather History Graph

Search for Another Location

Airport or City:

Trip Planner

Search our weather history database for the weather conditions in past years. The results will help you decide how hot, cold, wet, or windy it might be!

Date:

Astronomy

Sep. 10, 2012 Rise Set
Actual Time 6:51 AM CDT 7:39 PM CDT
Civil Twilight 6:21 AM CDT 8:09 PM CDT
Nautical Twilight 5:44 AM CDT 8:46 PM CDT
Astronomical Twilight 5:06 AM CDT 9:24 PM CDT
Moon 12:58 AM CDT (9/10) 4:23 PM CDT (9/10)
Length of Visible Light 13h 48m
Length of Day
12h 48m
Waning Crescent, 30% of the Moon is Illuminated
Sep 10
Waning Crescent
Sep 15
New
Sep 22
First Quarter
Sep 29
Full
Oct 8
Last Quarter

Hourly Weather History & Observations

Time (CDT) Temp. Windchill Dew Point Humidity Pressure Visibility Wind Dir Wind Speed Gust Speed Precip Events Conditions
12:13 AM 48.2 °F - 44.6 °F 87% 30.04 in 10.0 mi Calm Calm - N/A   Clear
12:33 AM 48.2 °F - 44.6 °F 87% 30.03 in 10.0 mi Calm Calm - N/A   Clear
12:54 AM 48.2 °F - 44.6 °F 87% 30.03 in 10.0 mi SE 3.5 mph - N/A   Clear
1:13 AM 48.2 °F - 44.6 °F 87% 30.03 in 10.0 mi SE 3.5 mph - N/A   Clear
1:33 AM 48.2 °F - 44.6 °F 87% 30.03 in 10.0 mi SSE 3.5 mph - N/A   Clear
1:53 AM 46.4 °F 45.2 °F 44.6 °F 93% 30.02 in 10.0 mi SSE 3.5 mph - N/A   Clear
2:13 AM 46.4 °F 44.3 °F 42.8 °F 87% 30.01 in 10.0 mi SE 4.6 mph - N/A   Clear
2:34 AM 48.2 °F - 44.6 °F 87% 30.00 in 10.0 mi SSE 5.8 mph - N/A   Clear
2:53 AM 48.2 °F - 44.6 °F 87% 30.00 in 10.0 mi SSE 4.6 mph - N/A   Clear
3:13 AM 50.0 °F - 44.6 °F 82% 30.00 in 10.0 mi SE 4.6 mph - N/A   Clear
3:34 AM 48.2 °F - 44.6 °F 87% 29.99 in 10.0 mi SSE 4.6 mph - N/A   Clear
3:53 AM 48.2 °F - 44.6 °F 87% 29.99 in 10.0 mi SE 4.6 mph - N/A   Clear
4:14 AM 48.2 °F - 44.6 °F 87% 29.98 in 10.0 mi SE 4.6 mph - N/A   Clear
4:33 AM 48.2 °F - 44.6 °F 87% 29.98 in 10.0 mi SE 4.6 mph - N/A   Clear
4:53 AM 48.2 °F - 44.6 °F 87% 29.98 in 10.0 mi SE 3.5 mph - N/A   Clear
5:13 AM 48.2 °F - 44.6 °F 87% 29.97 in 10.0 mi SE 4.6 mph - N/A   Clear
5:33 AM 48.2 °F - 44.6 °F 87% 29.96 in 10.0 mi SE 3.5 mph - N/A   Clear
5:54 AM 48.2 °F - 44.6 °F 87% 29.96 in 10.0 mi SSE 3.5 mph - N/A   Clear
6:13 AM 48.2 °F - 44.6 °F 87% 29.95 in 10.0 mi SSE 5.8 mph - N/A   Clear
6:33 AM 48.2 °F - 44.6 °F 87% 29.95 in 10.0 mi SSE 5.8 mph - N/A   Clear
6:54 AM 50.0 °F - 44.6 °F 82% 29.95 in 10.0 mi SSE 5.8 mph - N/A   Clear
7:13 AM 51.8 °F - 44.6 °F 76% 29.94 in 10.0 mi SSE 5.8 mph - N/A   Clear
7:33 AM 51.8 °F - 44.6 °F 76% 29.94 in 10.0 mi SSE 6.9 mph - N/A   Clear
7:54 AM 53.6 °F - 46.4 °F 77% 29.93 in 10.0 mi South 12.7 mph 17.3 mph N/A   Clear
8:13 AM 55.4 °F - 46.4 °F 72% 29.92 in 10.0 mi South 13.8 mph - N/A   Clear
8:33 AM 57.2 °F - 46.4 °F 67% 29.92 in 10.0 mi South 13.8 mph 23.0 mph N/A   Clear
8:53 AM 57.2 °F - 46.4 °F 67% 29.91 in 10.0 mi South 16.1 mph 21.9 mph N/A   Clear
9:13 AM 60.8 °F - 46.4 °F 59% 29.90 in 10.0 mi South 15.0 mph - N/A   Clear
9:34 AM 62.6 °F - 46.4 °F 55% 29.90 in 10.0 mi South 12.7 mph 20.7 mph N/A   Clear
9:53 AM 64.4 °F - 46.4 °F 52% 29.89 in 10.0 mi South 16.1 mph 25.3 mph N/A   Clear
10:13 AM 66.2 °F - 46.4 °F 49% 29.89 in 10.0 mi South 15.0 mph 23.0 mph N/A   Clear
10:34 AM 69.8 °F - 46.4 °F 43% 29.88 in 10.0 mi South 17.3 mph 25.3 mph N/A   Clear
10:53 AM 69.8 °F - 46.4 °F 43% 29.87 in 10.0 mi South 15.0 mph 23.0 mph N/A   Clear
11:13 AM 71.6 °F - 44.6 °F 38% 29.86 in 10.0 mi South 17.3 mph 26.5 mph N/A   Clear
11:33 AM 73.4 °F - 44.6 °F 36% 29.85 in 10.0 mi South 16.1 mph 25.3 mph N/A   Clear
11:53 AM 75.2 °F - 44.6 °F 34% 29.84 in 10.0 mi South 18.4 mph 24.2 mph N/A   Clear
12:14 PM 75.2 °F - 44.6 °F 34% 29.83 in 10.0 mi SSE 20.7 mph 28.8 mph N/A   Clear
12:34 PM 75.2 °F - 44.6 °F 34% 29.82 in 10.0 mi SSE 17.3 mph 25.3 mph N/A   Clear
12:53 PM 78.8 °F - 44.6 °F 30% 29.82 in 10.0 mi South 19.6 mph 26.5 mph N/A   Clear
1:14 PM 78.8 °F - 44.6 °F 30% 29.81 in 10.0 mi South 17.3 mph 27.6 mph N/A   Clear
1:34 PM 78.8 °F - 44.6 °F 30% 29.80 in 10.0 mi South 19.6 mph 27.6 mph N/A   Clear
1:53 PM 78.8 °F - 44.6 °F 30% 29.80 in 10.0 mi South 19.6 mph 29.9 mph N/A   Clear
2:13 PM 78.8 °F - 44.6 °F 30% 29.79 in 10.0 mi South 17.3 mph 31.1 mph N/A   Clear
2:34 PM 80.6 °F - 44.6 °F 28% 29.77 in 10.0 mi South 17.3 mph 32.2 mph N/A   Clear
2:53 PM 80.6 °F - 44.6 °F 28% 29.77 in 10.0 mi South 18.4 mph 28.8 mph N/A   Clear
3:13 PM 80.6 °F - 44.6 °F 28% 29.75 in 10.0 mi South 19.6 mph 32.2 mph N/A   Clear
3:34 PM 82.4 °F - 44.6 °F 26% 29.75 in 10.0 mi South 21.9 mph 27.6 mph N/A   Clear
3:53 PM 82.4 °F - 44.6 °F 26% 29.74 in 10.0 mi South 18.4 mph 27.6 mph N/A   Clear
4:13 PM 82.4 °F - 44.6 °F 26% 29.73 in 10.0 mi South 21.9 mph 27.6 mph N/A   Clear
4:33 PM 82.4 °F - 46.4 °F 28% 29.72 in 10.0 mi South 18.4 mph 32.2 mph N/A   Clear
4:53 PM 80.6 °F - 46.4 °F 30% 29.73 in 10.0 mi South 13.8 mph 28.8 mph N/A   Clear
5:14 PM 82.4 °F - 44.6 °F 26% 29.72 in 10.0 mi South 18.4 mph 28.8 mph N/A   Clear
5:33 PM 80.6 °F - 46.4 °F 30% 29.73 in 10.0 mi South 13.8 mph 23.0 mph N/A   Clear
5:53 PM 80.6 °F - 46.4 °F 30% 29.73 in 10.0 mi South 11.5 mph 19.6 mph N/A   Clear
6:14 PM 80.6 °F - 46.4 °F 30% 29.74 in 10.0 mi South 4.6 mph - N/A   Clear
6:33 PM 80.6 °F - 44.6 °F 28% 29.74 in 10.0 mi South 16.1 mph 27.6 mph N/A   Clear
6:53 PM 78.8 °F - 46.4 °F 32% 29.73 in 10.0 mi South 10.4 mph 28.8 mph N/A   Clear
7:14 PM 77.0 °F - 46.4 °F 34% 29.72 in 10.0 mi South 10.4 mph 17.3 mph N/A   Clear
7:33 PM 75.2 °F - 46.4 °F 36% 29.73 in 10.0 mi South 10.4 mph 16.1 mph N/A   Clear
7:54 PM 75.2 °F - 46.4 °F 36% 29.72 in 10.0 mi South 9.2 mph - N/A   Clear
8:13 PM 73.4 °F - 46.4 °F 38% 29.72 in 10.0 mi South 8.1 mph - N/A   Clear
8:33 PM 73.4 °F - 46.4 °F 38% 29.72 in 10.0 mi Calm Calm - N/A   Clear
8:54 PM 73.4 °F - 46.4 °F 38% 29.72 in 10.0 mi Calm Calm - N/A   Clear
9:13 PM 71.6 °F - 46.4 °F 41% 29.73 in 10.0 mi Calm Calm - N/A   Clear
9:33 PM 71.6 °F - 46.4 °F 41% 29.72 in 10.0 mi Calm Calm - N/A   Clear
9:54 PM 69.8 °F - 46.4 °F 43% 29.72 in 10.0 mi Calm Calm - N/A   Clear
10:13 PM 69.8 °F - 46.4 °F 43% 29.72 in 10.0 mi Calm Calm - N/A   Clear
10:33 PM 69.8 °F - 46.4 °F 43% 29.72 in 10.0 mi Calm Calm - N/A   Clear
10:54 PM 69.8 °F - 46.4 °F 43% 29.72 in 10.0 mi South 5.8 mph - N/A   Clear
11:13 PM 69.8 °F - 46.4 °F 43% 29.72 in 10.0 mi South 11.5 mph 17.3 mph N/A   Clear
11:33 PM 69.8 °F - 48.2 °F 46% 29.72 in 10.0 mi South 12.7 mph 17.3 mph N/A   Clear
11:54 PM 69.8 °F - 48.2 °F 46% 29.71 in 10.0 mi South 12.7 mph 19.6 mph N/A   Clear